User: anonymous   Login
Location: Bothwell
(42.3833°S, 147.0000°E)
Time: 05:50:56
(UTC+10:00)
Language:

XW-2D - Orbit

View from above orbital plane
View from above orbital plane
View from above satellite
View from above satellite

Ground track
Ground track

The orbit data is extracted from the following two-line orbital elements,

1 40907U 15049J   22267.42285150  .00006301  00000-0  28891-3 0  9996
2 40907  97.4962 270.1912 0013311  18.2325  87.7106 15.20730174388009
Epoch (UTC): 24 September 2022 10:08:54
Eccentricity: 0.0013311
inclination: 97.4962°
perigee height: 494 km
apogee height: 513 km
right ascension of ascending node: 270.1912°
argument of perigee: 18.2325°
revolutions per day: 15.20730174
mean anomaly at epoch: 87.7106°
orbit number at epoch: 38800

The dashed part of the orbit path shows where the satellite is in the earth's shadow,  

DLR